#�ϑ�����,���ϕ���,���ϕ���,�ő啗��,�ő啗����������,�ő�u�ԕ���,�ő�u�ԕ�����������
#(�N����),(m/s)   ,(16����),(m/s)   ,(16����)        ,(m/s)       ,(16����)            
2015/9/24 0:01,1,2,1.1,2,1,2
2015/9/24 0:02,0.9,2,1,2,1.3,2
2015/9/24 0:03,0.7,2,0.9,2,0.9,16
2015/9/24 0:04,0.6,2,0.7,2,0.6,1
2015/9/24 0:05,0.6,2,0.6,2,1.1,16
2015/9/24 0:06,0.6,1,0.6,2,1.3,16
2015/9/24 0:07,0.6,1,0.6,2,1.3,16
2015/9/24 0:08,0.5,1,0.6,2,0.9,3
2015/9/24 0:09,0.5,1,0.5,2,0.9,3
2015/9/24 0:10,0.4,1,0.5,2,0.6,1
2015/9/24 0:11,0.4,1,0.4,2,0.9,1
2015/9/24 0:12,0.4,1,0.4,2,0.8,1
2015/9/24 0:13,0.4,1,0.4,2,0.4,1
2015/9/24 0:14,0.4,1,0.4,2,0.8,1
2015/9/24 0:15,0.4,1,0.4,2,0.8,1
2015/9/24 0:16,0.4,1,0.4,1,0.9,1
2015/9/24 0:17,0.4,1,0.4,1,1,16
2015/9/24 0:18,0.4,1,0.4,1,1.1,16
2015/9/24 0:19,0.4,1,0.4,1,0.8,1
2015/9/24 0:20,0.4,1,0.4,1,0.9,16
2015/9/24 0:21,0.3,1,0.4,1,0.1,9
2015/9/24 0:22,0.3,1,0.3,1,0.5,2
2015/9/24 0:23,0.3,1,0.3,1,0.3,2
2015/9/24 0:24,0.3,1,0.3,1,0.3,2
2015/9/24 0:25,0.3,1,0.3,1,1,2
2015/9/24 0:26,0.3,2,0.3,1,0.9,2
2015/9/24 0:27,0.3,2,0.3,1,0.6,2
2015/9/24 0:28,0.3,2,0.3,1,1.3,3
2015/9/24 0:29,0.3,2,0.3,1,1.1,2
2015/9/24 0:30,0.4,2,0.4,1,1.6,3
2015/9/24 0:31,0.5,2,0.5,2,1.8,3
2015/9/24 0:32,0.5,2,0.5,2,0.9,2
2015/9/24 0:33,0.6,2,0.6,2,1,2
2015/9/24 0:34,0.6,2,0.6,2,0.9,2
2015/9/24 0:35,0.6,2,0.6,2,1.3,3
2015/9/24 0:36,0.7,2,0.7,2,1.8,2
2015/9/24 0:37,0.8,2,0.8,2,1.6,3
2015/9/24 0:38,0.8,2,0.8,2,1.8,1
2015/9/24 0:39,0.8,2,0.8,2,0.6,2
2015/9/24 0:40,0.8,2,0.8,2,1.3,3
2015/9/24 0:41,0.8,2,0.8,2,2,2
2015/9/24 0:42,0.8,2,0.8,2,1.5,2
2015/9/24 0:43,0.8,2,0.8,2,1.1,2
2015/9/24 0:44,0.9,2,0.9,2,2,2
2015/9/24 0:45,0.9,2,0.9,2,1.6,2
2015/9/24 0:46,0.9,2,1,2,2.2,2
2015/9/24 0:47,0.9,2,0.9,2,1.8,2
2015/9/24 0:48,1,2,1,2,2.2,1
2015/9/24 0:49,1.1,2,1.1,2,2.1,1
2015/9/24 0:50,1.2,2,1.2,2,2.6,2
2015/9/24 0:51,1.2,2,1.3,2,3,2
2015/9/24 0:52,1.3,2,1.3,2,1.9,2
2015/9/24 0:53,1.3,1,1.3,2,2.2,2
2015/9/24 0:54,1.4,2,1.4,2,2,1
2015/9/24 0:55,1.4,2,1.4,2,2.4,3
2015/9/24 0:56,1.3,2,1.4,2,2,1
2015/9/24 0:57,1.4,2,1.4,2,2.1,3
2015/9/24 0:58,1.3,2,1.4,2,2.1,3
2015/9/24 0:59,1.3,2,1.3,2,2.2,1
2015/9/24 1:00,1.3,2,1.3,2,2.2,2
2015/9/24 1:01,1.2,2,1.3,2,2,2
2015/9/24 1:02,1.2,2,1.2,2,2.5,3
2015/9/24 1:03,1.3,2,1.3,2,2.6,2
2015/9/24 1:04,1.2,2,1.3,2,1.8,2
2015/9/24 1:05,1.2,2,1.3,2,1.9,16
2015/9/24 1:06,1.2,2,1.2,2,1.8,1
2015/9/24 1:07,1.3,2,1.3,2,2.6,1
2015/9/24 1:08,1.3,2,1.3,2,2,1
2015/9/24 1:09,1.3,2,1.3,2,2.1,2
2015/9/24 1:10,1.3,2,1.3,2,2.1,16
2015/9/24 1:11,1.4,2,1.4,2,2.2,3
2015/9/24 1:12,1.4,2,1.4,2,2.5,1
2015/9/24 1:13,1.3,2,1.4,2,1.8,2
2015/9/24 1:14,1.3,2,1.3,2,2,1
2015/9/24 1:15,1.4,2,1.4,2,2,1
2015/9/24 1:16,1.3,2,1.4,2,1.6,2
2015/9/24 1:17,1.3,2,1.3,2,2.1,1
2015/9/24 1:18,1.3,2,1.3,2,2,1
2015/9/24 1:19,1.3,2,1.3,2,1.6,2
2015/9/24 1:20,1.2,2,1.3,2,1.8,2
2015/9/24 1:21,1.2,2,1.2,2,1.8,1
2015/9/24 1:22,1.2,2,1.2,2,1.8,2
2015/9/24 1:23,1.1,2,1.2,2,1.4,2
2015/9/24 1:24,1.1,2,1.1,2,1,3
2015/9/24 1:25,1,1,1.1,1,0.6,2
2015/9/24 1:26,0.9,1,1,2,1.4,2
2015/9/24 1:27,0.9,1,0.9,2,1.3,1
2015/9/24 1:28,0.8,1,0.9,2,1.5,16
2015/9/24 1:29,0.8,1,0.8,2,1.1,16
2015/9/24 1:30,0.8,1,0.8,2,1.8,16
2015/9/24 1:31,0.9,1,0.9,1,1.6,16
2015/9/24 1:32,0.9,1,0.9,2,1.9,16
2015/9/24 1:33,0.9,1,0.9,2,1.6,2
2015/9/24 1:34,0.9,1,0.9,2,1.6,4
2015/9/24 1:35,1,1,1,1,1.6,16
2015/9/24 1:36,1,1,1,1,1.1,2
2015/9/24 1:37,1,1,1,1,1,2
2015/9/24 1:38,1,1,1,1,1.3,3
2015/9/24 1:39,0.9,1,0.9,1,0.1,1
2015/9/24 1:40,0.8,1,0.9,1,0.1,16
2015/9/24 1:41,0.7,1,0.8,1,0.9,1
2015/9/24 1:42,0.6,1,0.7,1,1.5,16
2015/9/24 1:43,0.6,2,0.6,1,1.1,2
2015/9/24 1:44,0.7,2,0.7,1,2.5,3
2015/9/24 1:45,0.7,2,0.7,1,1.9,2
2015/9/24 1:46,0.7,2,0.7,1,1.6,1
2015/9/24 1:47,0.7,1,0.7,1,1,16
2015/9/24 1:48,0.7,2,0.7,1,1.1,3
2015/9/24 1:49,0.7,2,0.7,1,0.9,4
2015/9/24 1:50,0.7,2,0.7,1,0.3,4
2015/9/24 1:51,0.7,3,0.7,1,0,3
2015/9/24 1:52,0.6,3,0.7,2,0,8
2015/9/24 1:53,0.5,4,0.6,2,0.1,8
2015/9/24 1:54,0.4,4,0.5,2,0.1,8
2015/9/24 1:55,0.2,5,0.4,2,0,8
2015/9/24 1:56,0.2,6,0.2,2,0.1,8
2015/9/24 1:57,0.1,7,0.2,2,0,8
2015/9/24 1:58,0.1,7,0.1,2,0.1,8
2015/9/24 1:59,0,7,0.1,2,0.8,8
2015/9/24 2:00,0.1,8,0.1,2,0.6,8
2015/9/24 2:01,0.1,8,0.1,3,0.6,8
2015/9/24 2:02,0.1,8,0.1,3,0.3,8
2015/9/24 2:03,0.1,8,0.1,4,0,8
2015/9/24 2:04,0.1,8,0.1,4,0,8
2015/9/24 2:05,0.1,8,0.1,5,0,8
2015/9/24 2:06,0.1,8,0.1,6,0,8
2015/9/24 2:07,0.1,8,0.1,7,0,8
2015/9/24 2:08,0.1,8,0.1,7,0,8
2015/9/24 2:09,0.1,8,0.1,8,0.1,8
2015/9/24 2:10,0,8,0.1,8,0.3,8
2015/9/24 2:11,0,8,0,8,0,8
2015/9/24 2:12,0,8,0,8,0.1,8
2015/9/24 2:13,0,8,0,8,0.1,8
2015/9/24 2:14,0.1,8,0.1,8,1.6,12
2015/9/24 2:15,0.2,8,0.2,8,2,11
2015/9/24 2:16,0.4,9,0.4,9,2.1,12
2015/9/24 2:17,0.5,9,0.5,9,2,11
2015/9/24 2:18,0.6,9,0.6,9,1.8,11
2015/9/24 2:19,0.7,10,0.7,10,1.5,12
2015/9/24 2:20,0.8,10,0.8,10,1.5,13
2015/9/24 2:21,0.9,11,0.9,11,1.6,12
2015/9/24 2:22,1,11,1,11,1.5,13
2015/9/24 2:23,1.1,12,1.1,12,1.4,12
2015/9/24 2:24,1.1,12,1.1,12,1.4,15
2015/9/24 2:25,1,13,1.1,12,1.8,16
2015/9/24 2:26,1,13,1,12,1,1
2015/9/24 2:27,0.9,14,1,12,1.5,16
2015/9/24 2:28,0.9,14,0.9,12,1.3,1
2015/9/24 2:29,0.9,15,0.9,12,1.9,16
2015/9/24 2:30,1,15,1,12,1.8,16
2015/9/24 2:31,1,16,1,12,2,16
2015/9/24 2:32,1.1,16,1.1,12,2.2,1
2015/9/24 2:33,1.1,16,1.1,12,1.8,1
2015/9/24 2:34,1.2,1,1.2,1,1.9,2
2015/9/24 2:35,1.2,1,1.2,1,1.3,1
2015/9/24 2:36,1.3,1,1.3,1,1.8,1
2015/9/24 2:37,1.3,1,1.3,1,1.8,16
2015/9/24 2:38,1.3,1,1.3,1,1.8,1
2015/9/24 2:39,1.3,1,1.3,1,1.9,15
2015/9/24 2:40,1.2,1,1.3,1,1.5,15
2015/9/24 2:41,1.2,16,1.2,1,1.4,16
2015/9/24 2:42,1,16,1.2,1,1.1,2
2015/9/24 2:43,0.9,16,1,1,0.6,16
2015/9/24 2:44,0.8,16,0.9,1,0.8,16
2015/9/24 2:45,0.7,16,0.8,1,0.6,2
2015/9/24 2:46,0.6,1,0.7,1,0,1
2015/9/24 2:47,0.5,1,0.6,1,0,3
2015/9/24 2:48,0.4,1,0.5,1,0,3
2015/9/24 2:49,0.3,2,0.4,1,0,4
2015/9/24 2:50,0.2,2,0.3,1,0,4
2015/9/24 2:51,0.1,2,0.2,16,0,4
2015/9/24 2:52,0.1,2,0.1,16,0,14
2015/9/24 2:53,0.1,2,0.1,16,0,2
2015/9/24 2:54,0,2,0,16,0.1,14
2015/9/24 2:55,0,2,0,16,0.3,15
2015/9/24 2:56,0,2,0,1,0.6,15
2015/9/24 2:57,0.1,2,0.1,1,0.9,16
2015/9/24 2:58,0.2,1,0.2,1,1.1,16
2015/9/24 2:59,0.2,1,0.2,2,0.9,16
2015/9/24 3:00,0.2,16,0.2,2,0.6,16
2015/9/24 3:01,0.2,16,0.2,1,0.1,2
2015/9/24 3:02,0.2,1,0.2,1,0,2
2015/9/24 3:03,0.2,1,0.2,1,0,16
2015/9/24 3:04,0.2,1,0.2,1,0.1,2
2015/9/24 3:05,0.2,1,0.2,1,0.3,3
2015/9/24 3:06,0.2,1,0.2,1,0.1,1
2015/9/24 3:07,0.2,2,0.2,1,0.6,2
2015/9/24 3:08,0.1,2,0.2,1,0.6,1
2015/9/24 3:09,0,2,0.1,1,0.1,2
2015/9/24 3:10,0,2,0,16,0.3,2
2015/9/24 3:11,0.1,2,0.1,1,1.3,16
2015/9/24 3:12,0.2,2,0.2,1,1,1
2015/9/24 3:13,0.3,2,0.3,2,0.9,2
2015/9/24 3:14,0.3,2,0.3,2,0.1,1
2015/9/24 3:15,0.3,2,0.3,2,0.4,2
2015/9/24 3:16,0.3,1,0.3,2,0.6,15
2015/9/24 3:17,0.3,1,0.3,2,0.9,15
2015/9/24 3:18,0.4,1,0.4,1,1.3,1
2015/9/24 3:19,0.4,1,0.4,1,0.9,15
2015/9/24 3:20,0.5,1,0.5,1,0.9,1
2015/9/24 3:21,0.4,1,0.5,1,1.5,1
2015/9/24 3:22,0.4,1,0.4,1,1.4,16
2015/9/24 3:23,0.4,1,0.4,1,1.5,16
2015/9/24 3:24,0.5,1,0.5,1,1.4,16
2015/9/24 3:25,0.5,1,0.5,1,1.5,16
2015/9/24 3:26,0.6,1,0.6,16,1.5,15
2015/9/24 3:27,0.7,1,0.7,1,2,1
2015/9/24 3:28,0.7,16,0.7,1,1.6,15
2015/9/24 3:29,0.7,16,0.8,16,1.3,2
2015/9/24 3:30,0.7,1,0.7,16,0.9,3
2015/9/24 3:31,0.8,1,0.8,16,1.1,3
2015/9/24 3:32,0.7,1,0.8,16,1.3,3
2015/9/24 3:33,0.7,1,0.7,16,0.5,2
2015/9/24 3:34,0.7,1,0.7,16,1,16
2015/9/24 3:35,0.7,1,0.7,16,1.3,16
2015/9/24 3:36,0.7,1,0.7,16,2,1
2015/9/24 3:37,0.8,1,0.8,16,1.9,1
2015/9/24 3:38,0.8,1,0.8,16,1.5,1
2015/9/24 3:39,0.8,1,0.8,1,1.6,2
2015/9/24 3:40,0.9,1,0.9,1,1.5,1
2015/9/24 3:41,0.9,1,0.9,1,0.9,16
2015/9/24 3:42,0.8,1,0.9,1,0.9,1
2015/9/24 3:43,0.9,1,0.9,1,1.1,2
2015/9/24 3:44,0.9,1,0.9,1,1.1,2
2015/9/24 3:45,0.9,1,0.9,1,1.1,1
2015/9/24 3:46,0.9,1,0.9,1,1.6,16
2015/9/24 3:47,0.8,1,0.9,1,2,16
2015/9/24 3:48,0.9,1,0.9,1,2.2,16
2015/9/24 3:49,0.9,1,0.9,1,2.7,15
2015/9/24 3:50,1,1,1,1,3.1,15
2015/9/24 3:51,1.2,16,1.2,16,3.2,16
2015/9/24 3:52,1.4,16,1.4,16,3.2,15
2015/9/24 3:53,1.5,16,1.5,16,2.7,16
2015/9/24 3:54,1.8,16,1.8,16,3.3,16
2015/9/24 3:55,1.9,16,1.9,16,3,16
2015/9/24 3:56,2,16,2,16,2.7,16
2015/9/24 3:57,2.1,16,2.1,16,2.7,15
2015/9/24 3:58,2.1,16,2.1,16,3,16
2015/9/24 3:59,2.3,16,2.3,16,3.7,16
2015/9/24 4:00,2.3,16,2.3,16,3.2,16
2015/9/24 4:01,2.3,16,2.3,16,3.8,15
2015/9/24 4:02,2.3,15,2.3,16,3.1,15
2015/9/24 4:03,2.3,15,2.3,16,2.5,15
2015/9/24 4:04,2.1,16,2.3,16,1.8,16
2015/9/24 4:05,2.1,16,2.1,16,2.4,16
2015/9/24 4:06,2,16,2.1,16,2.5,16
2015/9/24 4:07,2,16,2.1,16,2.7,2
2015/9/24 4:08,1.9,16,2,16,1.3,1
2015/9/24 4:09,1.7,16,1.9,16,1,1
2015/9/24 4:10,1.5,16,1.7,16,1,1
2015/9/24 4:11,1.3,16,1.5,16,1.1,2
2015/9/24 4:12,1.2,1,1.3,15,1.3,1
2015/9/24 4:13,1,1,1.1,16,0.8,2
2015/9/24 4:14,1,1,1,16,1.3,16
2015/9/24 4:15,0.9,1,1,16,1.3,16
2015/9/24 4:16,0.9,1,0.9,16,1.8,16
2015/9/24 4:17,0.9,1,0.9,16,2.6,16
2015/9/24 4:18,0.9,1,0.9,16,2.1,15
2015/9/24 4:19,1,1,1,16,1.8,16
2015/9/24 4:20,1,16,1,16,1.9,16
2015/9/24 4:21,1.1,16,1.1,16,2.2,16
2015/9/24 4:22,1.1,16,1.1,1,2,2
2015/9/24 4:23,1.2,16,1.2,16,1.8,16
2015/9/24 4:24,1.2,16,1.2,16,1.8,1
2015/9/24 4:25,1.2,16,1.2,16,1.6,16
2015/9/24 4:26,1.3,16,1.3,16,2.7,2
2015/9/24 4:27,1.3,16,1.3,16,3,1
2015/9/24 4:28,1.3,16,1.3,16,2.6,1
2015/9/24 4:29,1.4,16,1.4,16,3.1,1
2015/9/24 4:30,1.5,16,1.5,16,3.2,2
2015/9/24 4:31,1.5,16,1.5,16,2.7,16
2015/9/24 4:32,1.6,16,1.6,16,3.3,16
2015/9/24 4:33,1.7,16,1.7,16,3.3,1
2015/9/24 4:34,1.8,16,1.8,16,3.1,1
2015/9/24 4:35,1.9,16,1.9,16,2.7,16
2015/9/24 4:36,1.9,1,1.9,16,2.6,16
2015/9/24 4:37,1.9,1,1.9,16,3.3,16
2015/9/24 4:38,2,16,2,16,3.5,15
2015/9/24 4:39,1.9,16,2,16,2.7,16
2015/9/24 4:40,1.9,16,2,16,2.1,16
2015/9/24 4:41,1.9,16,1.9,16,2.6,2
2015/9/24 4:42,1.8,16,1.9,16,2.7,1
2015/9/24 4:43,1.8,16,1.8,16,2.4,1
2015/9/24 4:44,1.7,16,1.8,16,2.6,15
2015/9/24 4:45,1.6,16,1.7,16,2.4,1
2015/9/24 4:46,1.6,16,1.6,16,2,16
2015/9/24 4:47,1.4,16,1.5,16,1.8,16
2015/9/24 4:48,1.3,16,1.4,16,1,15
2015/9/24 4:49,1.2,16,1.3,16,1.3,16
2015/9/24 4:50,1.1,16,1.1,16,1.3,15
2015/9/24 4:51,1,16,1.1,16,0.8,3
2015/9/24 4:52,0.8,15,1,16,0.1,14
2015/9/24 4:53,0.6,15,0.8,16,0.1,15
2015/9/24 4:54,0.6,15,0.6,16,1.4,1
2015/9/24 4:55,0.5,16,0.6,16,1,16
2015/9/24 4:56,0.6,16,0.6,16,2,16
2015/9/24 4:57,0.7,16,0.7,16,2.2,1
2015/9/24 4:58,0.8,16,0.8,16,2,16
2015/9/24 4:59,0.8,16,0.8,16,1.9,1
2015/9/24 5:00,0.9,16,0.9,16,2.1,1
2015/9/24 5:01,1,16,1,16,2,16
2015/9/24 5:02,1.1,1,1.1,1,2,1
2015/9/24 5:03,1.3,1,1.3,1,2.4,16
2015/9/24 5:04,1.3,1,1.3,1,2.2,1
2015/9/24 5:05,1.4,1,1.4,1,2.1,1
2015/9/24 5:06,1.4,1,1.4,1,1.9,3
2015/9/24 5:07,1.4,1,1.4,1,2,3
2015/9/24 5:08,1.3,1,1.4,1,1.4,2
2015/9/24 5:09,1.3,1,1.3,1,1.5,2
2015/9/24 5:10,1.2,1,1.3,1,1.8,3
2015/9/24 5:11,1.2,1,1.2,1,1.5,1
2015/9/24 5:12,1.2,1,1.2,1,2,1
2015/9/24 5:13,1.1,2,1.2,1,1.8,2
2015/9/24 5:14,1,2,1.1,1,1.8,1
2015/9/24 5:15,1,2,1.1,1,1.4,2
2015/9/24 5:16,1,2,1,1,1.6,2
2015/9/24 5:17,1,2,1,1,1.6,2
2015/9/24 5:18,1,2,1,1,1.5,2
2015/9/24 5:19,1,2,1,1,1.1,1
2015/9/24 5:20,0.9,2,0.9,1,0.6,3
2015/9/24 5:21,0.8,1,0.9,1,0.8,3
2015/9/24 5:22,0.8,2,0.8,1,1.8,2
2015/9/24 5:23,0.7,2,0.8,2,1.4,2
2015/9/24 5:24,0.7,1,0.7,2,1.5,16
2015/9/24 5:25,0.7,1,0.7,2,1.5,1
2015/9/24 5:26,0.7,1,0.7,2,1.6,1
2015/9/24 5:27,0.6,1,0.6,2,2.1,1
2015/9/24 5:28,0.7,1,0.7,2,2,16
2015/9/24 5:29,0.7,1,0.7,2,1.9,2
2015/9/24 5:30,0.9,1,0.9,2,2.1,1
2015/9/24 5:31,1,1,1,1,2.7,3
2015/9/24 5:32,1.1,1,1.1,1,3.2,1
2015/9/24 5:33,1.2,1,1.2,1,3.1,1
2015/9/24 5:34,1.3,1,1.3,1,2.2,2
2015/9/24 5:35,1.3,1,1.3,1,1.9,2
2015/9/24 5:36,1.4,2,1.4,1,2.7,2
2015/9/24 5:37,1.5,2,1.5,2,2.1,2
2015/9/24 5:38,1.5,2,1.5,2,3,3
2015/9/24 5:39,1.5,2,1.6,2,2.6,3
2015/9/24 5:40,1.5,2,1.6,2,2.2,3
2015/9/24 5:41,1.5,2,1.5,2,2.2,3
2015/9/24 5:42,1.4,2,1.5,2,2.7,2
2015/9/24 5:43,1.4,2,1.4,2,2.2,3
2015/9/24 5:44,1.3,2,1.4,2,2,2
2015/9/24 5:45,1.3,2,1.3,2,2.4,2
2015/9/24 5:46,1.3,2,1.3,2,2.7,3
2015/9/24 5:47,1.3,2,1.3,2,3.5,2
2015/9/24 5:48,1.3,2,1.4,2,3.2,2
2015/9/24 5:49,1.3,2,1.3,2,2.5,2
2015/9/24 5:50,1.3,2,1.3,2,2.1,3
2015/9/24 5:51,1.3,2,1.3,2,2.4,2
2015/9/24 5:52,1.5,2,1.5,2,3.2,3
2015/9/24 5:53,1.5,2,1.5,2,2.9,4
2015/9/24 5:54,1.5,2,1.5,2,2.7,3
2015/9/24 5:55,1.6,2,1.6,2,3,3
2015/9/24 5:56,1.6,2,1.6,2,2.7,3
2015/9/24 5:57,1.6,2,1.6,2,2.9,4
2015/9/24 5:58,1.5,2,1.6,2,2.5,3
2015/9/24 5:59,1.5,2,1.5,2,2.7,3
2015/9/24 6:00,1.5,2,1.6,2,2.6,3
2015/9/24 6:01,1.5,2,1.5,2,2.2,16
2015/9/24 6:02,1.5,2,1.5,2,3.1,1
2015/9/24 6:03,1.5,2,1.5,2,3.2,3
2015/9/24 6:04,1.6,2,1.6,2,3.7,3
2015/9/24 6:05,1.7,2,1.7,2,3.1,2
2015/9/24 6:06,1.7,2,1.7,2,3.7,3
2015/9/24 6:07,1.7,2,1.8,2,3.2,1
2015/9/24 6:08,1.8,2,1.8,2,3.9,2
2015/9/24 6:09,1.8,2,1.8,2,3.6,2
2015/9/24 6:10,1.9,2,1.9,2,3,2
2015/9/24 6:11,1.9,2,1.9,2,3.3,2
2015/9/24 6:12,1.9,2,1.9,2,3.9,1
2015/9/24 6:13,1.9,2,1.9,2,3.6,2
2015/9/24 6:14,1.9,2,2,2,3.7,2
2015/9/24 6:15,2,2,2,2,4.1,2
2015/9/24 6:16,2.1,2,2.1,2,3.9,1
2015/9/24 6:17,2.1,2,2.1,2,3.8,1
2015/9/24 6:18,2.1,2,2.1,2,2.7,3
2015/9/24 6:19,2.1,2,2.1,2,3.1,2
2015/9/24 6:20,2,2,2.1,2,2.5,2
2015/9/24 6:21,2.1,2,2.1,2,2.7,3
2015/9/24 6:22,2,2,2.1,2,2.9,3
2015/9/24 6:23,2,2,2,2,2.4,2
2015/9/24 6:24,1.9,2,2,2,2.1,2
2015/9/24 6:25,1.7,2,1.8,2,2.7,2
2015/9/24 6:26,1.7,2,1.7,2,3.7,2
2015/9/24 6:27,1.7,2,1.7,2,3.2,3
2015/9/24 6:28,1.7,2,1.7,2,3.5,2
2015/9/24 6:29,1.6,2,1.7,2,3.1,3
2015/9/24 6:30,1.8,2,1.8,2,3.7,2
2015/9/24 6:31,1.8,2,1.8,2,2.9,3
2015/9/24 6:32,1.8,2,1.8,2,2.9,3
2015/9/24 6:33,1.8,2,1.8,2,3.2,3
2015/9/24 6:34,1.9,2,1.9,2,3.2,3
2015/9/24 6:35,1.9,2,1.9,2,3,2
2015/9/24 6:36,1.9,2,1.9,2,2.5,3
2015/9/24 6:37,1.9,2,1.9,2,2.7,2
2015/9/24 6:38,1.9,2,1.9,2,2.7,2
2015/9/24 6:39,1.9,2,1.9,2,2.9,1
2015/9/24 6:40,1.8,2,1.9,2,3.3,3
2015/9/24 6:41,1.8,2,1.8,2,3.3,3
2015/9/24 6:42,1.8,2,1.8,2,3.1,3
2015/9/24 6:43,1.9,2,1.9,2,3.8,2
2015/9/24 6:44,2,2,2,2,3.9,4
2015/9/24 6:45,2,2,2,2,3,1
2015/9/24 6:46,2,2,2,2,3.9,1
2015/9/24 6:47,2,2,2,2,3.2,1
2015/9/24 6:48,2,2,2,2,3.7,2
2015/9/24 6:49,2.1,2,2.1,2,3.7,3
2015/9/24 6:50,2.1,2,2.1,2,3.1,3
2015/9/24 6:51,2,2,2.1,2,3,2
2015/9/24 6:52,2,2,2,2,3.2,2
2015/9/24 6:53,2,2,2,2,3.7,2
2015/9/24 6:54,1.9,2,2,2,3.3,2
2015/9/24 6:55,1.9,2,1.9,2,3.2,16
2015/9/24 6:56,1.8,2,1.8,2,3.5,3
2015/9/24 6:57,1.9,2,1.9,2,3.9,3
2015/9/24 6:58,2,2,2,2,3.8,2
2015/9/24 6:59,1.9,2,2,2,3.5,3
2015/9/24 7:00,2.1,2,2.1,2,4.1,3
2015/9/24 7:01,2.2,2,2.2,2,3.9,2
2015/9/24 7:02,2.2,2,2.2,2,3.6,2
2015/9/24 7:03,2.2,2,2.3,2,4.4,3
2015/9/24 7:04,2.2,2,2.2,2,2.2,4
2015/9/24 7:05,2.3,2,2.3,2,4.5,3
2015/9/24 7:06,2.5,2,2.5,2,4.9,3
2015/9/24 7:07,2.4,2,2.5,2,3.9,3
2015/9/24 7:08,2.4,2,2.4,2,3.7,3
2015/9/24 7:09,2.5,2,2.5,2,3.7,3
2015/9/24 7:10,2.4,2,2.5,2,3.7,3
2015/9/24 7:11,2.4,2,2.4,2,3.7,4
2015/9/24 7:12,2.4,2,2.4,2,2.9,2
2015/9/24 7:13,2.2,2,2.4,2,3.1,3
2015/9/24 7:14,2.3,2,2.3,2,3.2,2
2015/9/24 7:15,2.2,2,2.3,2,3.6,3
2015/9/24 7:16,2.1,2,2.2,2,3,1
2015/9/24 7:17,2.2,2,2.2,2,4.4,2
2015/9/24 7:18,2.1,2,2.2,2,4.4,2
2015/9/24 7:19,2.1,2,2.2,2,3.9,3
2015/9/24 7:20,2.1,2,2.1,2,4.3,4
2015/9/24 7:21,2.1,2,2.2,2,3.1,3
2015/9/24 7:22,2.1,2,2.2,2,3.6,4
2015/9/24 7:23,2.3,2,2.3,2,4.3,3
2015/9/24 7:24,2.4,2,2.4,2,4.2,3
2015/9/24 7:25,2.4,2,2.4,2,5.4,3
2015/9/24 7:26,2.5,2,2.5,2,4.7,3
2015/9/24 7:27,2.4,2,2.5,2,3.9,3
2015/9/24 7:28,2.4,2,2.4,2,3.9,3
2015/9/24 7:29,2.5,3,2.5,2,4.8,2
2015/9/24 7:30,2.5,2,2.6,3,3.5,4
2015/9/24 7:31,2.5,2,2.5,3,3.6,3
2015/9/24 7:32,2.6,2,2.6,3,3.5,2
2015/9/24 7:33,2.5,2,2.6,3,4.4,2
2015/9/24 7:34,2.4,2,2.5,3,3.5,3
2015/9/24 7:35,2.3,2,2.4,3,3.1,1
2015/9/24 7:36,2.2,2,2.3,3,2.6,2
2015/9/24 7:37,2.1,2,2.2,3,3.9,2
2015/9/24 7:38,2.3,2,2.3,3,5.7,2
2015/9/24 7:39,2.3,2,2.3,3,6.5,3
2015/9/24 7:40,2.4,2,2.4,2,3.9,3
2015/9/24 7:41,2.3,2,2.4,2,3.7,3
2015/9/24 7:42,2.2,2,2.3,2,3.1,1
2015/9/24 7:43,2.2,2,2.3,2,3.6,2
2015/9/24 7:44,2.3,2,2.3,2,3.5,2
2015/9/24 7:45,2.3,2,2.3,2,3.2,2
2015/9/24 7:46,2.3,2,2.3,2,4.1,3
2015/9/24 7:47,2.3,2,2.3,2,3.9,2
2015/9/24 7:48,2.2,2,2.3,2,4.2,2
2015/9/24 7:49,2,2,2.1,2,3,2
2015/9/24 7:50,2,2,2,2,4.9,2
2015/9/24 7:51,2.2,2,2.2,2,6.1,3
2015/9/24 7:52,2.2,2,2.2,2,4.3,1
2015/9/24 7:53,2.3,2,2.3,2,4.8,4
2015/9/24 7:54,2.4,2,2.4,2,4.7,3
2015/9/24 7:55,2.4,2,2.4,2,3.5,2
2015/9/24 7:56,2.4,2,2.4,2,3.8,3
2015/9/24 7:57,2.4,2,2.4,2,3.7,3
2015/9/24 7:58,2.4,2,2.5,2,2.5,1
2015/9/24 7:59,2.5,2,2.5,2,4.8,3
2015/9/24 8:00,2.5,2,2.5,2,4.2,3
2015/9/24 8:01,2.3,2,2.5,2,2.7,2
2015/9/24 8:02,2.1,2,2.2,2,2.5,2
2015/9/24 8:03,2,2,2.1,2,3.8,3
2015/9/24 8:04,1.9,2,2,2,1.8,1
2015/9/24 8:05,1.9,2,1.9,2,3.5,4
2015/9/24 8:06,1.8,2,1.9,2,3.1,3
2015/9/24 8:07,1.8,2,1.9,2,2.4,4
2015/9/24 8:08,1.8,3,1.8,2,2.7,4
2015/9/24 8:09,1.7,3,1.8,2,2.5,3
2015/9/24 8:10,1.6,3,1.7,2,2.5,3
2015/9/24 8:11,1.7,3,1.7,2,3,3
2015/9/24 8:12,1.8,3,1.8,2,3.2,3
2015/9/24 8:13,1.9,3,1.9,2,3.5,3
2015/9/24 8:14,1.9,3,1.9,2,4.2,3
2015/9/24 8:15,2,3,2,3,3.7,3
2015/9/24 8:16,2.1,3,2.1,3,3.6,3
2015/9/24 8:17,2.1,3,2.1,3,3.1,3
2015/9/24 8:18,2.1,3,2.1,3,3.7,3
2015/9/24 8:19,2.2,3,2.2,3,3.2,3
2015/9/24 8:20,2.2,3,2.2,3,3.9,4
2015/9/24 8:21,2.2,3,2.3,3,3.1,3
2015/9/24 8:22,2.3,3,2.3,3,4.2,3
2015/9/24 8:23,2.2,3,2.3,3,3,3
2015/9/24 8:24,2.2,3,2.3,3,3.3,4
2015/9/24 8:25,2.1,3,2.2,3,3,2
2015/9/24 8:26,2,3,2.1,3,3.3,3
2015/9/24 8:27,2.1,3,2.2,3,3.3,2
2015/9/24 8:28,2.1,3,2.1,3,2.7,2
2015/9/24 8:29,2.1,3,2.1,3,4.2,2
2015/9/24 8:30,2.1,3,2.1,3,3.3,3
2015/9/24 8:31,2.1,3,2.1,3,3.2,3
2015/9/24 8:32,2,3,2.1,3,2.7,3
2015/9/24 8:33,2,3,2,3,3.3,3
2015/9/24 8:34,2,3,2,3,3.5,4
2015/9/24 8:35,2.1,3,2.1,3,2.6,3
2015/9/24 8:36,2.1,3,2.1,3,2.2,4
2015/9/24 8:37,2,3,2,3,2.7,3
2015/9/24 8:38,2.1,3,2.1,3,2.6,4
2015/9/24 8:39,2,3,2.1,3,2.6,3
2015/9/24 8:40,2,3,2,3,3.6,3
2015/9/24 8:41,2,3,2,3,3.3,3
2015/9/24 8:42,2,3,2,3,2.9,3
2015/9/24 8:43,2,3,2,3,3.1,3
2015/9/24 8:44,1.9,3,2,3,3.3,3
2015/9/24 8:45,1.9,3,1.9,3,2.5,3
2015/9/24 8:46,2,3,2,3,2.6,2
2015/9/24 8:47,1.9,3,2,3,2.7,3
2015/9/24 8:48,1.9,3,1.9,3,2.5,4
2015/9/24 8:49,1.8,3,1.9,3,2,3
2015/9/24 8:50,1.7,3,1.8,3,2.6,4
2015/9/24 8:51,1.7,3,1.7,3,2.2,3
2015/9/24 8:52,1.6,3,1.7,3,2.4,3
2015/9/24 8:53,1.6,3,1.7,3,2.4,2
2015/9/24 8:54,1.6,3,1.6,3,2.4,4
2015/9/24 8:55,1.6,2,1.6,3,2.7,2
2015/9/24 8:56,1.6,2,1.6,3,3.3,3
2015/9/24 8:57,1.6,2,1.6,3,2.6,3
2015/9/24 8:58,1.6,2,1.6,3,3.1,3
2015/9/24 8:59,1.8,2,1.8,3,4.3,2
2015/9/24 9:00,1.8,2,1.8,2,4.2,3
2015/9/24 9:01,1.9,2,1.9,2,4.7,2
2015/9/24 9:02,2,2,2,2,3,2
2015/9/24 9:03,2.1,2,2.1,2,4.3,2
2015/9/24 9:04,2.1,2,2.1,2,4.8,3
2015/9/24 9:05,2.2,2,2.2,2,3.5,3
2015/9/24 9:06,2.2,2,2.2,2,4.1,2
2015/9/24 9:07,2.3,2,2.3,2,4.4,4
2015/9/24 9:08,2.3,2,2.3,2,3.2,2
2015/9/24 9:09,2.3,2,2.3,2,4.3,3
2015/9/24 9:10,2.3,2,2.3,2,4.1,3
2015/9/24 9:11,2.3,2,2.3,2,3.8,3
2015/9/24 9:12,2.4,2,2.4,2,4.1,3
2015/9/24 9:13,2.3,2,2.4,2,3,3
2015/9/24 9:14,2.3,3,2.3,2,3.2,3
2015/9/24 9:15,2.2,2,2.3,2,2.2,2
2015/9/24 9:16,2,3,2.2,2,1.8,3
2015/9/24 9:17,1.8,3,1.9,2,1.8,2
2015/9/24 9:18,1.7,3,1.8,2,2.2,3
2015/9/24 9:19,1.5,2,1.7,2,1.6,4
2015/9/24 9:20,1.5,2,1.5,2,3.2,3
2015/9/24 9:21,1.4,3,1.5,2,4.2,3
2015/9/24 9:22,1.4,2,1.4,2,4.1,3
2015/9/24 9:23,1.7,3,1.7,2,5.8,3
2015/9/24 9:24,1.7,2,1.7,3,3.7,2
2015/9/24 9:25,2,2,2,2,5.4,4
2015/9/24 9:26,2.2,2,2.2,2,4.3,3
2015/9/24 9:27,2.5,3,2.5,2,5.4,3
2015/9/24 9:28,2.8,3,2.8,3,5.1,4
2015/9/24 9:29,3.1,3,3.1,3,4.9,3
2015/9/24 9:30,3.2,3,3.2,3,3.9,2
2015/9/24 9:31,3.4,3,3.4,3,5.6,3
2015/9/24 9:32,3.5,3,3.5,3,4.2,3
2015/9/24 9:33,3.4,3,3.5,3,4.2,3
2015/9/24 9:34,3.4,3,3.4,3,3.9,4
2015/9/24 9:35,3.3,3,3.4,3,4.1,3
2015/9/24 9:36,3.2,3,3.2,3,4.4,3
2015/9/24 9:37,3.1,3,3.2,3,4.4,4
2015/9/24 9:38,3,3,3.2,3,3.5,5
2015/9/24 9:39,2.8,3,3,3,3.2,5
2015/9/24 9:40,2.8,3,2.8,3,3.3,4
2015/9/24 9:41,2.6,3,2.7,3,3.2,3
2015/9/24 9:42,2.4,4,2.5,3,2.7,4
2015/9/24 9:43,2.3,3,2.4,3,3.6,2
2015/9/24 9:44,2.4,3,2.4,3,4.2,3
2015/9/24 9:45,2.4,4,2.4,3,4.5,4
2015/9/24 9:46,2.3,4,2.4,3,3.2,4
2015/9/24 9:47,2.2,4,2.3,3,4.1,4
2015/9/24 9:48,2.3,4,2.3,3,4.1,3
2015/9/24 9:49,2.3,3,2.3,3,4.2,3
2015/9/24 9:50,2.3,3,2.3,3,2.4,2
2015/9/24 9:51,2.2,3,2.3,3,1.6,4
2015/9/24 9:52,2.1,3,2.2,4,2.7,3
2015/9/24 9:53,2.2,3,2.2,3,4.5,3
2015/9/24 9:54,2.2,3,2.2,4,3.9,3
2015/9/24 9:55,2.1,3,2.2,4,4.4,5
2015/9/24 9:56,2.3,4,2.3,4,3.9,5
2015/9/24 9:57,2.3,4,2.3,4,3.7,6
2015/9/24 9:58,2.2,4,2.2,4,3.3,2
2015/9/24 9:59,2,4,2.1,3,2.1,3
2015/9/24 10:00,2.1,4,2.1,3,3.2,4
2015/9/24 10:01,2.2,4,2.2,4,2.9,5
2015/9/24 10:02,2.3,4,2.3,4,2.9,5
2015/9/24 10:03,2.2,4,2.3,4,3.2,6
2015/9/24 10:04,2.2,5,2.2,4,3.2,6
2015/9/24 10:05,2.2,5,2.2,4,3,5
2015/9/24 10:06,2.1,5,2.2,4,2.7,5
2015/9/24 10:07,2.1,5,2.1,4,3,4
2015/9/24 10:08,2.2,5,2.2,4,3,4
2015/9/24 10:09,2.2,5,2.2,4,2.6,5
2015/9/24 10:10,2.2,5,2.2,4,3,4
2015/9/24 10:11,2.1,5,2.2,4,2.5,3
2015/9/24 10:12,2.2,4,2.2,4,3.6,3
2015/9/24 10:13,2.2,4,2.2,4,3.6,3
2015/9/24 10:14,2.1,4,2.2,5,2.4,4
2015/9/24 10:15,2.1,4,2.1,5,3.6,3
2015/9/24 10:16,2.1,4,2.1,5,3.5,4
2015/9/24 10:17,2.2,4,2.2,5,3.3,4
2015/9/24 10:18,2.2,4,2.2,5,3.7,5
2015/9/24 10:19,2.3,4,2.3,4,3.5,5
2015/9/24 10:20,2.3,4,2.3,4,3,3
2015/9/24 10:21,2.3,4,2.3,4,3.6,3
2015/9/24 10:22,2.4,4,2.4,4,4.4,3
2015/9/24 10:23,2.2,4,2.4,4,2.4,4
2015/9/24 10:24,2.4,4,2.4,4,4.9,5
2015/9/24 10:25,2.5,4,2.5,4,4.8,5
2015/9/24 10:26,2.4,4,2.5,4,3.7,5
2015/9/24 10:27,2.5,4,2.5,4,5.1,4
2015/9/24 10:28,2.6,4,2.6,4,4.2,4
2015/9/24 10:29,2.8,4,2.8,4,6.7,2
2015/9/24 10:30,3,4,3,4,5.6,3
2015/9/24 10:31,3.3,4,3.3,4,8.4,4
2015/9/24 10:32,3.3,4,3.3,4,7.7,5
2015/9/24 10:33,3.5,4,3.5,4,5.1,3
2015/9/24 10:34,3.5,4,3.5,4,5.8,3
2015/9/24 10:35,3.6,4,3.6,4,6.1,4
2015/9/24 10:36,3.7,4,3.7,4,5,5
2015/9/24 10:37,3.8,4,3.8,4,5.6,4
2015/9/24 10:38,3.9,4,3.9,4,5.5,4
2015/9/24 10:39,3.7,4,3.8,4,4.7,3
2015/9/24 10:40,3.6,4,3.7,4,4.5,4
2015/9/24 10:41,3.5,4,3.6,4,7.9,3
2015/9/24 10:42,3.7,4,3.7,4,7.2,2
2015/9/24 10:43,3.9,4,3.9,4,7,4
2015/9/24 10:44,3.9,4,3.9,4,4.4,3
2015/9/24 10:45,3.8,4,3.8,4,5.1,3
2015/9/24 10:46,3.9,3,3.9,4,6.9,3
2015/9/24 10:47,4,3,4,3,7.7,4
2015/9/24 10:48,4,3,4,3,5.7,3
2015/9/24 10:49,4.1,3,4.1,3,5.8,3
2015/9/24 10:50,4.1,3,4.1,3,5,4
2015/9/24 10:51,4.1,3,4.2,3,6,4
2015/9/24 10:52,3.9,3,4.1,3,5,3
2015/9/24 10:53,3.7,3,3.9,3,4.2,5
2015/9/24 10:54,3.7,3,3.7,3,4.7,3
2015/9/24 10:55,3.7,4,3.7,3,5.5,5
2015/9/24 10:56,3.6,4,3.7,3,4.4,3
2015/9/24 10:57,3.4,4,3.5,3,6.3,5
2015/9/24 10:58,3.6,4,3.6,3,7.1,4
2015/9/24 10:59,3.4,4,3.5,3,5.1,5
2015/9/24 11:00,3.3,4,3.4,3,3.5,5
2015/9/24 11:01,3.2,4,3.3,3,4.1,3
2015/9/24 11:02,3.2,4,3.2,3,5.7,5
2015/9/24 11:03,3.3,4,3.3,4,5.5,3
2015/9/24 11:04,3.4,4,3.4,3,5.4,3
2015/9/24 11:05,3.4,4,3.4,4,4.8,3
2015/9/24 11:06,3.4,4,3.4,4,4.3,4
2015/9/24 11:07,3.2,4,3.4,4,3.8,5
2015/9/24 11:08,2.9,4,3.2,4,2.9,4
2015/9/24 11:09,2.9,4,2.9,4,4.7,5
2015/9/24 11:10,3.1,4,3.1,4,4.7,5
2015/9/24 11:11,3,4,3,4,3.5,2
2015/9/24 11:12,2.9,4,3,4,4.2,4
2015/9/24 11:13,2.9,4,2.9,4,6,5
2015/9/24 11:14,2.9,4,2.9,4,5.2,5
2015/9/24 11:15,2.9,5,2.9,4,4.7,6
2015/9/24 11:16,2.8,5,2.9,4,4.9,5
2015/9/24 11:17,2.8,5,2.8,4,4.2,5
2015/9/24 11:18,2.9,5,2.9,4,3.8,6
2015/9/24 11:19,2.8,5,2.9,4,3.3,5
2015/9/24 11:20,2.7,5,2.8,4,3,3
2015/9/24 11:21,2.7,5,2.7,4,4.8,4
2015/9/24 11:22,2.7,5,2.8,4,3.6,5
2015/9/24 11:23,2.6,5,2.7,4,3.1,5
2015/9/24 11:24,2.5,5,2.6,4,3,3
2015/9/24 11:25,2.3,5,2.5,5,3.2,2
2015/9/24 11:26,2.4,4,2.4,5,3.5,5
2015/9/24 11:27,2.4,4,2.4,5,3.8,6
2015/9/24 11:28,2.5,4,2.5,5,4.9,5
2015/9/24 11:29,2.5,4,2.5,5,4.2,5
2015/9/24 11:30,2.5,5,2.5,5,3.3,6
2015/9/24 11:31,2.4,5,2.5,5,3,5
2015/9/24 11:32,2.4,5,2.4,5,3.3,5
2015/9/24 11:33,2.4,5,2.4,5,3,5
2015/9/24 11:34,2.3,5,2.4,5,3.2,5
2015/9/24 11:35,2.4,5,2.4,4,3.5,3
2015/9/24 11:36,2.4,5,2.4,4,3.8,3
2015/9/24 11:37,2.3,5,2.4,4,3.7,4
2015/9/24 11:38,2.3,5,2.3,4,3.9,4
2015/9/24 11:39,2.2,5,2.3,4,3.3,4
2015/9/24 11:40,2.3,5,2.3,5,3.9,5
2015/9/24 11:41,2.4,5,2.4,5,3.3,4
2015/9/24 11:42,2.3,5,2.4,5,3.3,6
2015/9/24 11:43,2.3,5,2.3,5,2.9,5